Hinckley, MN

4:45 PM CST on December 07, 2019 (GMT -0600)
Hinckley

Weather History for K04W - October, 2019

Change the Weather History Date:

Tuesday, October 1, 2019

  Actual Average (KJMR) Record (KJMR)
Temperature  
Mean Temperature 52 °F -  
Max Temperature 57 °F 66 °F 86 °F (1976)
Min Temperature 46 °F 36 °F 16 °F (1984)
Degree Days  
Heating Degree Days 14    
Growing Degree Days 2 (Base 50)    
Moisture  
Dew Point 46 °F    
Average Humidity 85    
Maximum Humidity 100    
Minimum Humidity 71    
Precipitation  
Precipitation 0.00 in - - ()
Sea Level Pressure  
Sea Level Pressure 30.02 in    
Wind  
Wind Speed 8 mph (North)    
Max Wind Speed 14 mph    
Max Gust Speed 18 mph    
Visibility 10 miles    
Events Rain    
Averages and records for this station are not official NWS values.
T = Trace of Precipitation, MM = Missing Value Source: NWS Daily Summary

Daily Weather History Graph

Daily Weather History Graph

Search for Another Location

Airport or City:

Astronomy

Oct. 01, 2019 Rise Set
Actual Time 7:09 AM CDT 6:52 PM CDT
Civil Twilight 6:39 AM CDT 7:21 PM CDT
Nautical Twilight 6:05 AM CDT 7:56 PM CDT
Astronomical Twilight 5:29 AM CDT 8:31 PM CDT
Moon 10:35 AM CDT (10/1) 8:54 PM CDT (10/1)
Length of Visible Light 12h 41m
Length of Day
11h 42m
Waxing Crescent, 12% of the Moon is Illuminated
Oct 1
Waxing Crescent
Oct 5
First Quarter
Oct 13
Full
Oct 21
Last Quarter
Oct 27
New

Hourly Weather History & Observations

Time (CDT) Temp. Windchill Dew Point Humidity Pressure Visibility Wind Dir Wind Speed Gust Speed Precip Events Conditions
12:19 AM 57.2 °F - 55.4 °F 94% 29.87 in 10.0 mi NW 12.7 mph 17.3 mph N/A   Overcast
12:36 AM 55.4 °F - 53.6 °F 94% 29.89 in 10.0 mi NNW 11.5 mph 16.1 mph N/A   Overcast
1:15 AM 53.6 °F - 51.8 °F 94% 29.91 in 10.0 mi NNW 8.1 mph - N/A   Overcast
1:16 AM 53.6 °F - 51.8 °F 94% 29.91 in 10.0 mi NNW 8.1 mph - N/A   Overcast
1:35 AM 53.6 °F - 51.8 °F 94% 29.91 in 10.0 mi NW 9.2 mph - N/A   Overcast
1:39 AM 53.6 °F - 51.8 °F 94% 29.91 in 10.0 mi NNW 5.8 mph - N/A   Overcast
1:58 AM 51.8 °F - 51.8 °F 100% 29.91 in 10.0 mi NW 5.8 mph - N/A   Mostly Cloudy
2:16 AM 51.8 °F - 51.8 °F 100% 29.90 in 10.0 mi NNW 6.9 mph - N/A   Scattered Clouds
2:35 AM 51.8 °F - 50.0 °F 94% 29.91 in 10.0 mi NNW 8.1 mph - N/A   Clear
2:36 AM 51.8 °F - 50.0 °F 94% 29.91 in 10.0 mi NNW 8.1 mph - N/A   Clear
2:55 AM 51.8 °F - 50.0 °F 94% 29.92 in 10.0 mi NNW 5.8 mph - N/A   Scattered Clouds
2:56 AM 51.8 °F - 50.0 °F 94% 29.92 in 10.0 mi NNW 5.8 mph - N/A   Scattered Clouds
3:18 AM 51.8 °F - 50.0 °F 94% 29.93 in 10.0 mi NNW 5.8 mph - N/A   Overcast
3:36 AM 51.8 °F - 50.0 °F 94% 29.95 in 10.0 mi NNW 4.6 mph - N/A   Overcast
3:56 AM 51.8 °F - 50.0 °F 94% 29.95 in 10.0 mi NNW 8.1 mph - N/A   Overcast
4:15 AM 51.8 °F - 48.2 °F 88% 30.00 in 10.0 mi NW 10.4 mph - N/A   Mostly Cloudy
4:35 AM 51.8 °F - 50.0 °F 94% 30.03 in 10.0 mi WNW 6.9 mph - N/A   Overcast
4:39 AM 51.8 °F - 50.0 °F 94% 30.02 in 10.0 mi NW 4.6 mph - N/A   Overcast
4:58 AM 50.0 °F - 48.2 °F 94% 30.02 in 10.0 mi NW 4.6 mph - N/A   Overcast
5:15 AM 50.0 °F - 48.2 °F 94% 30.01 in 10.0 mi NNW 4.6 mph - N/A   Overcast
5:35 AM 50.0 °F - 48.2 °F 94% 29.99 in 10.0 mi NNW 9.2 mph - N/A   Overcast
5:36 AM 50.0 °F - 48.2 °F 94% 29.99 in 10.0 mi NNW 8.1 mph - N/A   Overcast
5:55 AM 50.0 °F - 48.2 °F 94% 29.98 in 10.0 mi NNW 8.1 mph - N/A   Mostly Cloudy
6:18 AM 50.0 °F - 46.4 °F 87% 30.00 in 10.0 mi NW 6.9 mph - N/A   Light Drizzle
6:35 AM 50.0 °F - 46.4 °F 87% 30.00 in 10.0 mi NNW 10.4 mph - N/A   Scattered Clouds
6:55 AM 50.0 °F - 46.4 °F 87% 30.00 in 10.0 mi NNW 6.9 mph 10.4 mph N/A   Scattered Clouds
6:56 AM 50.0 °F - 46.4 °F 87% 30.00 in 10.0 mi NNW 6.9 mph 10.4 mph N/A   Scattered Clouds
7:15 AM 50.0 °F - 46.4 °F 87% 29.99 in 10.0 mi NNW 8.1 mph - N/A   Mostly Cloudy
7:38 AM 48.2 °F - 46.4 °F 93% 29.97 in 10.0 mi North 9.2 mph - N/A   Scattered Clouds
7:57 AM 48.2 °F - 46.4 °F 93% 29.99 in 10.0 mi North 5.8 mph - N/A   Clear
8:16 AM 50.0 °F - 46.4 °F 87% 29.99 in 10.0 mi North 8.1 mph - N/A   Clear
8:35 AM 50.0 °F - 46.4 °F 87% 30.03 in 10.0 mi North 5.8 mph - N/A   Mostly Cloudy
8:36 AM 50.0 °F - 46.4 °F 87% 30.03 in 10.0 mi NNW 6.9 mph - N/A   Mostly Cloudy
8:55 AM 50.0 °F - 46.4 °F 87% 30.03 in 10.0 mi North 3.5 mph - N/A   Mostly Cloudy
8:59 AM 50.0 °F - 46.4 °F 87% 30.03 in 10.0 mi North 4.6 mph - N/A   Mostly Cloudy
9:16 AM 50.0 °F - 46.4 °F 87% 30.02 in 10.0 mi NNW 8.1 mph - N/A   Scattered Clouds
9:35 AM 50.0 °F - 46.4 °F 87% 30.05 in 10.0 mi North 6.9 mph - N/A   Mostly Cloudy
9:55 AM 50.0 °F - 46.4 °F 87% 30.07 in 10.0 mi NW 5.8 mph - N/A   Overcast
9:56 AM 50.0 °F - 46.4 °F 87% 30.07 in 10.0 mi NW 5.8 mph - N/A   Overcast
10:15 AM 50.0 °F - 46.4 °F 87% 30.04 in 10.0 mi North 8.1 mph - N/A   Overcast
10:19 AM 50.0 °F - 46.4 °F 87% 30.04 in 10.0 mi North 6.9 mph - N/A   Overcast
10:37 AM 50.0 °F - 46.4 °F 87% 30.05 in 10.0 mi North 5.8 mph - N/A   Overcast
10:55 AM 50.0 °F - 46.4 °F 87% 30.05 in 10.0 mi North 6.9 mph - N/A Rain Light Rain
11:15 AM 50.0 °F - 46.4 °F 87% 30.05 in 10.0 mi North 6.9 mph - N/A Rain Light Rain
11:16 AM 50.0 °F - 46.4 °F 87% 30.06 in 10.0 mi North 6.9 mph - N/A   Light Drizzle
11:35 AM 50.0 °F - 46.4 °F 87% 30.08 in 10.0 mi NW 8.1 mph - N/A   Mostly Cloudy
11:36 AM 50.0 °F - 46.4 °F 87% 30.08 in 10.0 mi NNW 8.1 mph - N/A   Mostly Cloudy
11:59 AM 51.8 °F - 44.6 °F 76% 30.08 in 10.0 mi North 6.9 mph - N/A   Overcast
12:17 PM 51.8 °F - 44.6 °F 76% 30.08 in 10.0 mi North 6.9 mph - N/A Rain Light Rain
12:36 PM 51.8 °F - 44.6 °F 76% 30.09 in 10.0 mi Calm Calm - N/A Rain Light Rain
12:55 PM 51.8 °F - 46.4 °F 82% 30.09 in 10.0 mi Calm Calm - N/A   Light Drizzle
1:15 PM 51.8 °F - 46.4 °F 82% 30.06 in 10.0 mi North 9.2 mph - N/A   Overcast
1:19 PM 51.8 °F - 46.4 °F 82% 30.05 in 10.0 mi North 9.2 mph - N/A Rain Light Rain
1:38 PM 51.8 °F - 44.6 °F 76% 30.04 in 10.0 mi NNE 8.1 mph - N/A   Scattered Clouds
1:55 PM 51.8 °F - 44.6 °F 76% 30.05 in 10.0 mi North 8.1 mph - N/A   Mostly Cloudy
2:15 PM 51.8 °F - 44.6 °F 76% 30.05 in 10.0 mi NNW 6.9 mph - N/A   Overcast
2:16 PM 51.8 °F - 44.6 °F 76% 30.05 in 10.0 mi NNW 6.9 mph - N/A   Overcast
2:35 PM 51.8 °F - 44.6 °F 76% 30.06 in 10.0 mi NNW 4.6 mph - N/A   Overcast
2:39 PM 51.8 °F - 44.6 °F 76% 30.06 in 10.0 mi NNW 4.6 mph - N/A   Overcast
2:58 PM 51.8 °F - 44.6 °F 76% 30.05 in 10.0 mi NNW 6.9 mph - N/A   Overcast
3:15 PM 51.8 °F - 44.6 °F 76% 30.06 in 10.0 mi North 6.9 mph - N/A   Overcast
3:35 PM 51.8 °F - 44.6 °F 76% 30.06 in 10.0 mi North 5.8 mph - N/A   Overcast
3:55 PM 51.8 °F - 44.6 °F 76% 30.05 in 10.0 mi NNE 5.8 mph - N/A   Overcast
3:56 PM 51.8 °F - 44.6 °F 76% 30.05 in 10.0 mi NNE 5.8 mph - N/A   Overcast
4:18 PM 51.8 °F - 46.4 °F 82% 30.05 in 10.0 mi North 3.5 mph - N/A   Overcast
4:36 PM 51.8 °F - 46.4 °F 82% 30.03 in 10.0 mi NNE 4.6 mph - N/A   Overcast
4:55 PM 51.8 °F - 46.4 °F 82% 30.04 in 10.0 mi North 4.6 mph - N/A   Overcast
4:56 PM 51.8 °F - 46.4 °F 82% 30.04 in 10.0 mi North 3.5 mph - N/A   Overcast
5:15 PM 51.8 °F - 46.4 °F 82% 30.05 in 10.0 mi Calm Calm - N/A   Overcast
5:16 PM 51.8 °F - 46.4 °F 82% 30.06 in 10.0 mi Calm Calm - N/A   Overcast
5:35 PM 51.8 °F - 48.2 °F 88% 30.06 in 10.0 mi Calm Calm - N/A   Overcast
5:40 PM 51.8 °F - 46.4 °F 82% 30.06 in 10.0 mi Calm Calm - N/A   Overcast
5:57 PM 51.8 °F - 48.2 °F 88% 30.05 in 10.0 mi Calm Calm - N/A   Overcast
6:15 PM 51.8 °F - 48.2 °F 88% 30.04 in 10.0 mi Calm Calm - N/A   Overcast
6:35 PM 51.8 °F - 48.2 °F 88% 30.03 in 10.0 mi NNE 3.5 mph - N/A   Mostly Cloudy
6:36 PM 51.8 °F - 48.2 °F 88% 30.03 in 10.0 mi NNE 3.5 mph - N/A   Mostly Cloudy
6:55 PM 51.8 °F - 48.2 °F 88% 30.03 in 10.0 mi North 4.6 mph - N/A   Scattered Clouds
6:56 PM 51.8 °F - 48.2 °F 88% 30.03 in 10.0 mi NNE 3.5 mph - N/A   Scattered Clouds
7:18 PM 51.8 °F - 46.4 °F 82% 30.03 in 10.0 mi North 3.5 mph - N/A   Scattered Clouds
7:36 PM 51.8 °F - 46.4 °F 82% 30.04 in 10.0 mi North 4.6 mph - N/A   Mostly Cloudy
7:56 PM 51.8 °F - 44.6 °F 76% 30.04 in 10.0 mi North 5.8 mph - N/A   Scattered Clouds
8:15 PM 51.8 °F - 42.8 °F 71% 30.04 in 10.0 mi North 9.2 mph - N/A   Mostly Cloudy
8:16 PM 51.8 °F - 42.8 °F 71% 30.04 in 10.0 mi North 8.1 mph - N/A   Mostly Cloudy
8:38 PM 50.0 °F - 42.8 °F 76% 30.04 in 10.0 mi North 10.4 mph 16.1 mph N/A   Overcast
8:56 PM 50.0 °F - 42.8 °F 76% 30.04 in 10.0 mi North 10.4 mph - N/A   Overcast
9:15 PM 50.0 °F - 42.8 °F 76% 30.05 in 10.0 mi North 8.1 mph - N/A   Overcast
9:16 PM 50.0 °F - 42.8 °F 76% 30.06 in 10.0 mi North 8.1 mph - N/A   Overcast
9:35 PM 50.0 °F - 42.8 °F 76% 30.06 in 10.0 mi North 12.7 mph 18.4 mph N/A   Overcast
9:36 PM 50.0 °F - 42.8 °F 76% 30.06 in 10.0 mi NNE 11.5 mph 18.4 mph N/A   Overcast
9:55 PM 48.2 °F - 42.8 °F 82% 30.07 in 10.0 mi North 11.5 mph - N/A   Overcast
9:59 PM 48.2 °F - 42.8 °F 82% 30.07 in 10.0 mi North 12.7 mph 18.4 mph N/A   Overcast
10:17 PM 48.2 °F - 41.0 °F 76% 30.08 in 10.0 mi North 13.8 mph 18.4 mph N/A   Overcast
10:36 PM 46.4 °F 40.7 °F 41.0 °F 81% 30.07 in 10.0 mi North 12.7 mph 18.4 mph N/A   Overcast
10:55 PM 46.4 °F 41.5 °F 41.0 °F 81% 30.08 in 10.0 mi NNE 10.4 mph - N/A   Overcast
10:56 PM 46.4 °F 41.9 °F 41.0 °F 81% 30.08 in 10.0 mi NNE 9.2 mph - N/A   Overcast
11:15 PM 46.4 °F 41.9 °F 41.0 °F 81% 30.08 in 10.0 mi North 9.2 mph - N/A   Overcast
11:20 PM 46.4 °F 42.9 °F 41.0 °F 81% 30.09 in 10.0 mi North 6.9 mph - N/A   Overcast
11:37 PM 46.4 °F 41.5 °F 41.0 °F 81% 30.09 in 10.0 mi North 10.4 mph - N/A   Overcast
11:55 PM 46.4 °F 42.4 °F 41.0 °F 81% 30.09 in 10.0 mi NNE 8.1 mph 17.3 mph N/A   Overcast